Tracking 19224 objects as of 22-Jul-2018
HD Live streaming from Space Station
objects crossing your sky now

FLOCK 2EP 20

Track FLOCK 2EP 20 now!
10-day predictions
FLOCK 2EP 20 is classified as:


NORAD ID: 41782
Int'l Code: 1998-067KQ
Perigee: 328.1 km
Apogee: 331.3 km
Inclination: 51.6 °
Period: 91.0 minutes
Semi major axis: 6700 km
RCS: Unknown
Launch date: November 20, 1998
Source: United States (US)
Launch site: TYURATAM MISSILE AND SPACE COMPLEX (TTMTR)
aabbcc
Your satellite tracking list
Your tracking list is empty




NASA's NSSDC Master Catalog

Two Line Element Set (TLE):
1 41782U 98067KQ  18203.21353437  .00103869  00000-0  47815-3 0  9999
2 41782  51.6325 144.9324 0002381  30.0644 330.0495 15.82782782105587
Source of the keplerian elements: AFSPC